CUBEBUG-2 (LO-74)

Last updated on Mon Feb 16 2026 00:03:10 GMT+0000 (Coordinated Universal Time)

1 39440U 13066AA 26046.37692336 .00006070 00000+0 57370-3 0 9990 2 39440 97.8778 355.0254 0060547 71.5203 289.2584 14.92670797658810
UTC large
Height (km)
Speed (km/s)
/
Latitude / Longitude
Inclination (degrees)
Orbital Period (minutes)
Azimuth
Elevation
Range (km)
Doppler Factor

Next 0 passes for location: London (51.5072 / 0.1276)

Sorry there are no passes over London.